Regional Weather Roundup
Issued by NWS Cleveland, OH

Home | Current Version | Previous Version | Graphics & Text | Print | Product List | Glossary On
Versions: 1 2 3 4 5 6 7 8 9 10 11 12 13 14 15 16 17 18 19 20 21 22 23 24 25 26 27 28 29 30 31 32 33 34 35 36 37 38 39 40 41 42 43 44 45 46 47 48 49 50
000
ASUS41 KCLE 301110
RWRCLE
OHIO REGIONAL WEATHER ROUNDUP
NATIONAL WEATHER SERVICE WILMINGTON, OH
700 AM EDT THU OCT 30 2014

NOTE: "FAIR" INDICATES FEW OR NO CLOUDS BELOW 12,000 FEET WITH NO
SIGNIFICANT WEATHER AND/OR OBSTRUCTIONS TO VISIBILITY.

OHZ001>008-015>018-024>027-034-035-043-044-301200-
   NORTHWEST OHIO

CITY           SKY/WX    TMP DP  RH WIND       PRES   REMARKS
DEFIANCE       PTCLDY    36  34  92 CALM      30.14S
FINDLAY        MOCLDY    41  36  82 NW5       30.13R
TOLEDO EXPRESS CLEAR     34  32  92 CALM      30.13S
TOLEDO METCALF CLEAR     37  32  82 CALM      30.14S
LIMA           CLOUDY    42  37  82 N5        30.13S
$$

OHZ009>014-019>023-028>033-038-089-301200-
   NORTHEAST OHIO

CITY           SKY/WX    TMP DP  RH WIND       PRES   REMARKS
CLE-HOPKINS    LGT RAIN  43  42  97 W5        30.12R FOG
CLE-LAKEFRONT  LGT RAIN N/A N/A N/A N10       30.08S
CUY CO. ARPT   MOCLDY    48  39  71 N7        30.10
LORAIN-ELYRIA  CLOUDY    41  38  89 W5        30.11S
ASHTABULA      LGT RAIN  43  41  93 CALM      30.08S
AKRON-CANTON   PTCLDY    38  35  89 W5        30.09R
WOOSTER        CLEAR     35  32  88 CALM      30.11R
MANSFIELD      CLEAR     36  36 100 W5        30.11R
YOUNGSTOWN     CLOUDY    42  40  92 W7        30.07S
$$

OHZ042-051>053-060>062-070>072-077>081-301200-
  SOUTHWEST OHIO

CITY           SKY/WX    TMP DP  RH WIND       PRES   REMARKS
CINC-COVINGTON PTCLDY    41  33  73 N3        30.15R
CINC-LUNKEN    PTCLDY    37  35  92 CALM      30.17R
HAMILTON       CLOUDY    41  37  86 CALM      30.17R
DAYTON         CLOUDY    43  36  76 NW5       30.16R
WRIGHT-PAT AFB CLOUDY    43  36  74 NW5       30.15R
DAYTON GENERAL CLOUDY    43  35  73 NW3       30.14R
WILMINGTON     CLOUDY    42  34  73 NW7       30.14R
$$

OHZ036-037-039>041-045>050-054>059-063>069-073>076-082>088-301200-
  CENTRAL AND SOUTHEAST OHIO

CITY           SKY/WX    TMP DP  RH WIND       PRES   REMARKS
COLUMBUS       PTCLDY    42  34  73 CALM      30.13R
OSU AIRPORT    CLOUDY    43  36  76 NW7       30.13R
BOLTON FIELD   CLOUDY    41  37  85 MISG      30.14R
RICKENBACK AFB CLOUDY    41  36  81 CALM      30.13S
NEWARK         CLEAR     32  29  88 CALM      30.13R
MARION         CLEAR     37  34  89 W3        30.13R
LANCASTER      CLEAR     34  31  88 CALM      30.13R
ZANESVILLE     CLEAR     31  29  92 CALM      30.12R
NEW PHILLY     CLEAR     35  32  88 CALM      30.11S
$$



USA.gov is the U.S. government's official web portal to all federal, state and local government web resources and services.